User: anonymous   Login
Location: Austin, TX
(30.3000°N, 97.7500°W)
Time: 08:31:49
(UTC-05:00)
Language:

Cosmos 2082 Rocket - Orbit

View from above orbital plane
View from above orbital plane
View from above satellite
View from above satellite

Ground track
Ground track

The orbit data is extracted from the following two-line orbital elements,

1 20625U 90046B   14296.74234307  .00000361  00000-0  21269-3 0  8516
2 20625 071.0011 019.5097 0012825 143.4181 004.8192 14.14536559261026
Epoch (UTC): 23 October 2014 17:48:58
Eccentricity: 0.0012825
inclination: 71.0011°
perigee height: 834 km
apogee height: 853 km
right ascension of ascending node: 19.5097°
argument of perigee: 143.4181°
revolutions per day: 14.14536559
mean anomaly at epoch: 4.8192°
orbit number at epoch: 26102

The dashed part of the orbit path shows where the satellite is in the earth's shadow,  

DLR